Location: Molveno
(46.1500°N, 10.9667°E)
Time: 07:56:01
(UTC+00:00)

ATLAS 2AS CENTAUR R/B - Pass Details

Date: 05 July 2020
Orbit: 930 x 1282 km, 63.7° (Epoch: 19 July)

Event Time Altitude Azimuth Distance (km) Brightness Sun altitude
Rises 22:32:50 0° 320° (NW) 4,168 6.8 -20.3°
Reaches altitude 10° 22:35:43 10° 318° (NW) 3,159 6.0 -20.4°
Maximum altitude 22:43:12 67° 238° (WSW) 1,222 2.8 -20.7°
Enters shadow 22:46:18 35° 167° (SSE) 1,694 3.2 -20.7°
